Powrót do katalogu

TRITON 1

AktywnyMilitariaSSO
NORAD 39427·PAYLOAD·🇬🇧 United Kingdom

Wystrzelony Nov 21, 2013 z Dombarovsky

Loading…

Następne Przeloty (najbliższe 24 godziny)

TLE

ŚwieżeSource: Space-Track

Epoka: Sep 14, 2026, 13:29 UTC

1 39427U 13066M   26257.56212466  .00001662  00000-0  20254-3 0  9996
2 39427  97.8155 165.3073 0088234 303.6153  55.6663 14.82041367687326

Śledź TRITON 1 w czasie rzeczywistym z AllMySat

Download on the App Store